1st Responders/1st Detectors/Storm Spotters Weather Summary for Allen County, KY

Forecast Maps


Reg. NEXRAD Animation


National Fire Danger: Day 1 & 2 Map

Current NWS Watch/Warnings

SPC Convective Day 1 Outlook


Day 2 Outlook

(Click images to enlarge|Page will refresh every 5 minutes)
UK Ag. Weather Center Desktop Severe Weather Service[HERE]
Allen County, KY Hazardous Weather Outlook Webcast
(9 AM to 9 PM Mon-Fri)
[Fast]
[Dial-up]


UKAWC 1st Detectors/1st Responders Precision Weather Forecast For ALLEN County, Kentucky
(based on the NWS County Digital Forecast)

ISSUED AT 14:00 UTC ON SUNDAY JUL 22 2018
DAY SUNDAY
CDT 3HR 10A 11A NOON 1P 2P 3P 4P 5P 6P
MAX/MIN -- -- -- -- -- -- -- -- 81°
TEMP 74° 76° 79° 81° 81° 79° 79° 77° 76°
SKY COVER 79% 89% 90% 87% 80% 75% 86% 86% 89%
Clouds
DEW PT 65° 67° 67° 67° 67° 67° 67° 67° 67°
RH 75% 71% 66% 62% 62% 65% 66% 71% 73%
POP 12HR -- -- -- -- -- -- -- -- --
RAIN/SNOW (liq.equ) -- -- -- 0.01in -- -- -- -- --
SNOWFALL -- -- -- 0in -- -- -- -- --
WIND SPEED(MPH) 8 8 9 9 9 8 8 9 8
WIND Gust(MPH) 13 13 15 15 15 13 13 15 13
WIND DIR W W W W NW NW NW NW NW
DEW Lgt Dew Lgt Dew -- -- -- -- -- -- Lgt Dew
HeatIndex 74 76 79 83 83 82 79 77 76
Rain Showers Chance Chance Chance Chance Chance Chance Chance Chance Chance
Thunder Storm Slight Chance Slight Chance Slight Chance Slight Chance Slight Chance Slight Chance Slight Chance Slight Chance Slight Chance
WIND CHILL -- -- -- -- -- -- -- -- --
SPRAY COND
DRY COND
LIVESTOCK HEATSTRESS 71.91 73.26 75.22 76.36 76.36 75.11 75.22 74.10 73.45



DAY MONDAY TUESDAY WEDNESDAY THURSDAY FRIDAY SATURDAY
CDT 6HR 7P 8P 9P 10P 11P MIDN 1A 2A 3A 4A 5A 6A 7A 8A 9A 10A 11A NOON 1P 2P 3P 4P 5P 6P 7P 8P 9P 10P 1A 4A 7A 10A 1P 4P 7P 1A 7A 1P 7P 1A 7A 1P 7P 1A 7A 1P 7P 1A 7A 1P 7P
MAX/MIN -- -- -- -- -- -- -- -- -- -- -- -- 67° -- -- -- -- -- -- -- -- -- -- 83° -- -- -- -- -- -- 65° -- -- 86° -- -- 67° 86° -- -- 67° 90° -- -- 67° 88° -- -- 67° 88° --
TEMP 76° 74° 72° 70° 70° 70° 70° 68° 67° 67° 67° 67° 67° 68° 70° 72° 76° 79° 81° 83° 83° 83° 83° 83° 81° 79° 76° 72° 68° 65° 68° 77° 83° 86° 83° 70° 68° 85° 83° 70° 70° 88° 85° 72° 70° 88° 83° 70° 70° 86° 81°
SKY COVER 79% 83% 86% 89% 90% 90% 90% 89% 88% 87% 88% 88% 89% 88% 86% 85% 83% 78% 76% 75% 71% 70% 69% 68% 67% 64% 57% 54% 47% 51% 58% 64% 69% 63% 68% 50% 51% 61% 38% 19% 15% 20% 21% 33% 39% 51% 51% 54% 53% 63% 67%
Clouds
DEW PT 67° 67° 68° 68° 68° 67° 67° 67° 67° 67° 67° 67° 67° 67° 67° 67° 67° 67° 67° 67° 67° 67° 67° 67° 67° 67° 65° 65° 65° 65° 65° 67° 70° 70° 70° 68° 68° 70° 70° 68° 68° 67° 70° 67° 67° 68° 68° 67° 67° 68° 68°
RH 76% 81% 90% 93% 96% 92% 93% 96% 96% 99% 100% 100% 99% 93% 90% 81% 73% 69% 62% 60% 56% 56% 57% 57% 60% 66% 71% 78% 90% 96% 90% 70% 62% 57% 65% 93% 100% 62% 67% 93% 97% 51% 61% 87% 93% 53% 63% 86% 90% 55% 65%
POP 12HR 45% -- -- -- -- -- -- -- -- -- -- -- 45% -- -- -- -- -- -- -- -- -- -- -- 36% -- -- -- -- -- 15% -- -- -- 38% -- 29% -- 39% -- 6% -- 6% -- 7% -- 21% -- 20% -- 30%
RAIN/SNOW (liq.equ) 0.08in -- -- -- -- -- 0.05in -- -- -- -- -- 0.00in -- -- -- -- -- 0.01in -- -- -- -- -- 0.01in -- -- -- 0.01in -- 0.00in -- 0.01in -- 0.04in -- -- -- -- -- -- -- -- -- -- -- -- -- -- -- --
SNOWFALL 0in -- -- -- -- -- 0in -- -- -- -- -- 0in -- -- -- -- -- 0in -- -- -- -- -- 0in -- -- -- 0in -- 0in -- 0in -- 0in -- -- -- -- -- -- -- -- -- -- -- -- -- -- -- --
WIND SPEED(MPH) 8 7 7 6 6 6 6 6 5 5 6 6 7 7 7 7 7 7 7 8 8 8 8 7 7 6 2 1 2 1 2 5 7 7 6 1 1 7 5 1 2 7 6 1 1 6 6 2 2 6 5
WIND DIR NW NW NW NW NW NW NW NW NW NW NW N N N N N N N N N N N N N N N N N N N N N N N N N N N NE N N N N NE NE N N NE E NW N
HeatIndex 76 74 72 70 70 70 70 68 67 67 67 67 67 68 70 72 76 79 85 86 86 86 86 86 84 79 76 72 68 65 68 77 88 92 87 70 68 90 87 70 70 91 89 72 70 92 86 70 70 91 85
Rain Showers Chance Chance Chance Chance Chance Chance -- -- -- -- -- -- Chance Chance Chance Chance Chance Chance Chance Chance Chance Chance Chance Chance Slight Chance Slight Chance Slight Chance Slight Chance -- -- Slight Chance Slight Chance Chance Chance Chance -- Chance Chance -- -- -- -- -- -- -- Slight Chance Slight Chance -- Slight Chance Chance Chance
Thunder Storm Slight Chance Slight Chance Slight Chance -- -- -- -- -- -- -- -- -- Slight Chance Slight Chance Slight Chance Slight Chance Slight Chance Slight Chance Chance Chance Chance Chance Chance Chance -- -- -- -- -- -- Slight Chance Slight Chance Chance Chance -- -- Chance Chance -- -- -- -- -- -- -- Slight Chance -- -- -- Slight Chance --
WIND CHILL -- -- -- -- -- -- -- -- -- -- -- -- -- -- -- -- -- -- -- -- -- -- -- -- -- -- -- -- -- -- -- -- -- -- -- -- -- -- -- -- -- -- -- -- -- -- -- -- -- -- --
SPRAY COND
DRY COND
LIVESTOCK HEATSTRESS 73.73 72.41 71.27 69.57 69.75 69.51 69.57 67.80 66.82 66.95 67.00 67.00 66.95 67.65 69.38 70.62 73.45 75.56 76.36 77.68 77.14 77.14 77.28 77.28 76.12 75.22 73.26 70.40 67.49 64.86 67.49 74.00 77.94 79.57 78.34 69.57 68.00 79.52 78.61 69.57 69.82 80.13 79.38 71.06 69.57 80.45 78.08 69.14 69.38 79.27 76.73

Click on individual weather variable above in left-hand column (ie., TEMP, RH, QPF 12HR) to view state forecast maps






NWS 48 Hr. Forecast Maps,

Regional Hourly Observations For ALLEN County, Kentucky
Issued at 1000 AM EDT SUN JUL 22 2018
WESTERN AND SOUTH CENTRAL KENTUCKY
  
CITY           SKY/WX    TMP DP  RH WIND       PRES   REMARKS
PADUCAH        CLOUDY    74  65  73 NW8       29.84S                  
HENDERSON      CLOUDY    71  67  87 NW13      29.81S                  
OWENSBORO      PTSUNNY   71  68  90 NW10      29.79S                  
HOPKINSVILLE   CLOUDY    71  66  84 NW8G20    29.82S                  
BOWLING GREEN  CLOUDY    73  68  84 W9        29.80R                  
GLASGOW        CLOUDY    71  65  81 W6        29.79R                  


Current NOWCAST not available:
Nowcasts are not issued routinely during fair weather. Only when
precipitation or other significant weather is occuring in this county will these
forecasts be issued. Currently, there is no short term forecast in effect.


Fire Weather Forecast For ALLEN County, KY
Provided by the National Weather Service:

Issued at: Sun Jul 22 10:05:01 EDT 2018

404 AM EDT Sun Jul 22 2018 /304 AM CDT Sun Jul 22 2018/

                      Today        Tonight      Mon          

CLOUD COVER           MCldy        MCldy        MCldy        
PRECIP TYPE           tstms        tstms        tstms        
CHANCE PRECIP (%)     50           50           20           
TEMP (24H TREND)      81 (-3)      65 (-2)      84           
RH % (24H TREND)      64 (+7)      100 (+5)     56           
20FTWND-VAL/AM(MPH)   W  6                      N  5         
20FTWND-RDG/PM(MPH)   NW  7        NW  5        N  6         
PRECIP AMOUNT         0.17         0.07         0.01         
MIXING HGT(FT-AGL/MSL)3775                      5157         
TRANSPORT WND (MPH)   NW 15                     N 13         
VENT RATE (KT-FT)     56280                     78822        
DISPERSION            Good                      Good         
DSI                   SLGT UNSTBL  SLGT UNSTBL  STBL         
LAL                   2            2            3            
HAINES INDEX          3            3            3            
ADI EARLY             27 FAIR      13 GEN POOR  15 GEN POOR  
ADI LATE              38 FAIR      3 VERY POOR  35 FAIR      
MAX LVORI EARLY       6            7            8            
MAX LVORI LATE        3            9            3            

REMARKS...ADI IS ATMOSPHERIC DISPERSION INDEX BY LAVDAS.        
LVORI IS LOW VISIBILITY OCCURRENCE RISK INDEX.

.TUESDAY...Mostly cloudy. A 50 percent chance of showers and
thunderstorms. Lows in the mid 60s. Highs in the mid 80s. Light
winds. 
.WEDNESDAY...Mostly cloudy. A 50 percent chance of showers and
thunderstorms. Lows in the upper 60s. Highs in the upper 80s.
North winds up to 5 mph. 
.THURSDAY...Mostly clear. Lows in the upper 60s. Highs in the
upper 80s. Northwest winds up to 5 mph. 
.FRIDAY...Partly cloudy. Chance of showers. Lows in the upper
60s. Highs in the upper 80s. Northwest winds up to 5 mph. 
.SATURDAY...Mostly cloudy. Chance of showers. Lows in the mid
60s. Highs in the mid 80s. Northwest winds up to 5 mph. 

SPC's Fire Weather Web Tool (Excellent!), SPC's Fire Weather Outlooks, NWS Fire Weather WEB, Fire Danger Class Map,
Keetch-Byram Drought Index, ROMAN Web, Haines Index ,
WFAS's 10-hr Dead Fuel Moist., WFAS's 100-hr Dead Fuel Moist., Probablity of Ignition, Visual blackness Map, Palmer Drought Index, HPC's Rainfall Forecast Maps


Hazardous Weather Outlook For ALLEN County, Kentucky
350 AM EDT Sun Jul 22 2018 /250 AM CDT Sun Jul 22 2018/

 DAY ONE  Today and Tonight.

No hazardous weather is expected. 

 DAYS TWO THROUGH SEVEN  Monday through Saturday.

Isolated to scattered afternoon and evening storms are expected each
day through the next work week as the weather pattern remains 
unsettled.

 SPOTTER INFORMATION STATEMENT  

Spotter activation is not anticipated.

Latest ALLEN County, Kentucky Watches, Warnings and Advisories.
Additional Drought Info.: UKAWC Drought Page, Kentucky Drought Watch


7-Day Forecast For ALLEN County, KY

TODAY
Mostly cloudy with chance of showers and slight chance of thunderstorms. Highs in the lower 80s. West winds 5 to 10 mph. Chance of precipitation 50 percent.

TONIGHT
Cloudy with chance of showers and slight chance of thunderstorms. Lows in the upper 60s. Northwest winds 5 to 10 mph. Chance of precipitation 50 percent.

MONDAY
Mostly cloudy with a 40 percent chance of showers and thunderstorms. Highs in the mid 80s. North winds 5 to 10 mph.

MONDAY NIGHT
Partly cloudy with a 20 percent chance of showers. Lows in the mid 60s. North winds up to 5 mph.

TUESDAY
Partly cloudy with a 50 percent chance of showers and thunderstorms. Highs in the upper 80s. North winds up to 10 mph.

TUESDAY NIGHT
Partly cloudy with a 50 percent chance of showers. Lows in the upper 60s.

WEDNESDAY
Partly cloudy with a 50 percent chance of showers and thunderstorms. Highs in the upper 80s.

WEDNESDAY NIGHT
Partly cloudy. Lows in the upper 60s.

THURSDAY
Mostly sunny. Highs around 90.

THURSDAY NIGHT
Partly cloudy. Lows in the upper 60s.

FRIDAY
Partly cloudy with a 20 percent chance of showers and thunderstorms. Highs around 90.

FRIDAY NIGHT
Partly cloudy with a 20 percent chance of showers. Lows in the upper 60s.

SATURDAY
Partly cloudy with chance of showers and slight chance of thunderstorms. Highs in the upper 80s. Chance of precipitation 30 percent.

Ag Weather Center, Department of Biosystems & Agricultural Engineering, University of Kentucky